FW8239 Weather Reports


time (UTC)temp
F
wind
direction
speed
knots
gust
knots
rain 1hr
in
rain 24hr
in
rain mn
in
humidity
%
barometer
mb
20260507030016 0 177 0.0 0.0 0.00 0.00 0.00 2 1018.5
20260507025503 0 177 0.0 0.0 0.00 0.00 0.00 2 1018.4
20260507025002 0 177 0.0 0.0 0.00 0.00 0.00 2 1018.3
20260507024601 0 177 0.0 0.0 0.00 0.00 0.00 2 1018.2
20260507024100 0 176 0.0 0.0 0.00 0.00 0.00 2 1018.1
20260507023557 0 177 0.0 0.0 0.00 0.00 0.00 2 1018.1
20260507023056 0 176 0.0 0.0 0.00 0.00 0.00 2 1018.1
20260507022554 0 177 0.0 0.0 0.00 0.00 0.00 3 1017.9
20260507022055 0 177 0.0 0.0 0.00 0.00 0.00 2 1017.9
20260507021552 0 176 0.0 0.0 0.00 0.00 0.00 2 1017.8
20260507021050 0 176 0.0 0.0 0.00 0.00 0.00 2 1017.9
20260507020549 0 177 0.0 0.0 0.00 0.00 0.00 2 1018.0
20260507015548 0 177 0.0 0.0 0.00 0.00 0.00 2 1018.0
20260507015045 0 177 0.0 0.0 0.00 0.00 0.00 3 1018.0
20260507014547 0 177 0.0 0.0 0.00 0.00 0.00 3 1018.1
20260507014041 0 177 0.0 0.0 0.00 0.00 0.00 4 1018.1
20260507013541 0 177 0.0 0.0 0.00 0.00 0.00 4 1018.0
20260507013040 0 177 0.0 0.0 0.00 0.00 0.00 5 1017.9
20260507012537 0 298 0.0 0.0 0.00 0.00 0.00 5 1017.9
20260507012035 0 299 0.0 0.0 0.00 0.00 0.00 6 1017.8
20260507011539 0 298 0.0 0.0 0.00 0.00 0.00 7 1017.7
20260507011032 0 299 0.0 0.0 0.00 0.00 0.00 8 1017.7
20260507010532 0 299 0.0 0.0 0.00 0.00 0.00 8 1017.6
20260507010047 0 299 0.0 0.0 0.00 0.00 0.00 10 1017.6
20260507005529 0 299 0.0 0.0 0.00 0.00 0.00 9 1017.4
20260507005026 0 299 0.0 0.0 0.00 0.00 0.00 8 1017.4
20260507004528 0 299 0.0 0.0 0.00 0.00 0.00 9 1017.4
20260507004024 0 299 0.0 0.0 0.00 0.00 0.00 12 1017.4
20260507003523 0 299 0.0 0.0 0.00 0.00 0.00 16 1017.1
20260507003022 0 299 0.0 0.0 0.00 0.00 0.00 22 1017.2
20260507002520 0 299 0.0 0.0 0.00 0.00 0.00 25 1017.3
20260507002023 0 300 0.0 0.0 0.00 0.00 0.00 26 1017.2
20260507001518 0 295 0.0 0.0 0.00 0.00 0.00 26 1017.0
20260507001017 0 302 0.0 0.0 0.00 0.00 0.00 25 1016.8
20260507000518 0 303 0.0 0.0 0.00 0.00 0.00 24 1016.9
20260507000015 0 303 0.0 0.0 0.00 0.00 0.00 25 1017.3
20260506235513 0 303 0.0 0.0 0.00 0.00 0.00 25 1017.4
20260506235011 0 303 0.0 0.0 0.00 0.00 0.00 26 1017.2
20260506234511 0 103 0.0 0.0 0.00 0.00 0.00 25 1017.0
20260506234008 0 103 0.0 0.0 0.00 0.00 0.00 27 1016.8
20260506233510 0 103 0.0 0.0 0.00 0.00 0.00 30 1016.6
20260506233011 0 104 0.0 0.0 0.00 0.00 0.00 35 1016.5
20260506232504 0 104 0.0 0.0 0.00 0.00 0.00 38 1016.4
20260506232002 0 103 0.0 4.3 0.00 0.00 0.00 42 1016.3
20260506231501 0 103 0.0 5.2 0.00 0.00 0.00 48 1016.6
20260506231059 0 297 0.9 5.2 0.00 0.00 0.00 60 1016.5
20260506230600 0 283 0.0 3.5 0.00 0.00 0.00 100 1016.4
20260506230121 0 265 0.0 12.2 0.00 0.00 0.00 100 1016.4
20260506225559 0 89 3.5 12.2 0.00 0.00 0.00 100 1016.5
20260506225059 0 251 0.0 3.5 0.00 0.00 0.00 100 1015.7
20260506224605 0 299 0.9 7.8 0.00 0.00 0.00 100 1014.8
20260506224101 0 335 2.6 7.8 0.00 0.00 0.00 100 1015.0
20260506224004 0 5 3.5 7.8 0.00 0.00 0.00 100 1015.0
20260506223557 0 271 0.0 2.6 0.00 0.00 0.00 100 1015.2
20260506223056 0 259 0.0 5.2 0.00 0.00 0.00 100 1015.2
20260506222556 0 120 0.9 5.2 0.00 0.00 0.00 100 1014.7
20260506222055 0 44 0.0 6.1 0.00 0.00 0.00 100 1014.9
20260506221609 0 78 0.9 6.1 0.00 0.00 0.00 100 1015.1
20260506221051 0 65 0.9 5.2 0.00 0.00 0.00 100 1014.5
20260506220551 0 25 0.0 4.3 0.00 0.00 0.00 100 1014.8
20260506220104 0 126 0.0 3.5 0.00 0.00 0.00 100 1014.8
20260506215545 0 34 0.0 3.5 0.00 0.00 0.00 100 1014.6
20260506215044 0 117 0.0 2.6 0.00 0.00 0.00 100 1014.5
20260506214548 0 108 0.0 0.9 0.00 0.00 0.00 100 1014.6
20260506214041 0 108 0.0 0.9 0.00 0.00 0.00 100 1014.8
20260506213540 0 108 0.0 1.7 0.00 0.00 0.00 100 1015.1
20260506213044 0 118 0.0 0.9 0.00 0.00 0.00 100 1015.5
20260506212536 0 119 0.0 1.7 0.00 0.00 0.00 100 1015.3
20260506212035 0 117 0.0 3.5 0.00 0.00 0.00 98 1015.5
20260506211535 0 102 2.6 3.5 0.00 0.00 0.00 96 1015.7
20260506211032 0 117 1.7 3.5 0.00 0.00 0.00 94 1015.7
20260506210531 0 115 0.0 1.7 0.00 0.00 0.00 95 1016.0
20260506210032 0 140 0.0 1.7 0.00 0.00 0.00 97 1016.0
20260506205529 0 137 0.0 1.7 0.00 0.00 0.00 99 1016.0
20260506205026 0 208 0.0 0.9 0.00 0.00 0.00 100 1015.9
20260506204527 0 165 0.0 0.9 0.00 0.00 0.00 100 1016.0
20260506204023 0 278 0.0 0.9 0.00 0.00 0.00 100 1016.0
20260506203524 0 278 0.0 0.9 0.00 0.00 0.00 100 1016.1
20260506203020 0 286 0.0 0.9 0.00 0.00 0.00 100 1016.2
20260506202519 0 284 0.0 0.9 0.00 0.00 0.00 100 1016.2
20260506202018 0 287 0.0 0.9 0.00 0.00 0.00 100 1016.3
20260506201526 0 288 0.0 0.9 0.00 0.00 0.00 100 1016.4
20260506201014 0 291 0.0 0.0 0.00 0.00 0.00 100 1016.4
20260506200512 0 291 0.0 0.0 0.00 0.00 0.00 100 1016.4
20260506200011 0 291 0.0 1.7 0.00 0.00 0.00 100 1016.5
20260506195510 0 291 0.0 2.6 0.00 0.00 0.00 99 1016.5
20260506195008 0 295 0.0 4.3 0.00 0.00 0.00 98 1016.6
20260506194508 0 295 0.0 4.3 0.00 0.00 0.00 97 1016.7
20260506194004 0 89 0.0 2.6 0.00 0.00 0.00 97 1016.7
20260506193504 0 90 0.0 2.6 0.00 0.00 0.00 98 1016.7
20260506193002 0 264 0.0 0.9 0.00 0.00 0.00 98 1017.0
20260506192601 0 269 0.0 0.9 0.00 0.00 0.00 98 1016.9
20260506192059 0 271 0.0 0.9 0.00 0.00 0.00 99 1017.0
20260506191617 0 118 0.0 1.7 0.00 0.00 0.00 98 1017.1
20260506191057 0 101 0.0 2.6 0.00 0.00 0.00 98 1017.2
20260506190556 0 102 0.0 2.6 0.00 0.00 0.00 99 1017.2
20260506190055 0 141 0.0 0.0 0.00 0.00 0.00 99 1017.4
20260506185552 0 141 0.0 0.0 0.00 0.00 0.00 99 1017.4
20260506185051 0 150 0.0 1.7 0.00 0.00 0.00 99 1017.5
20260506184559 0 136 0.0 2.6 0.00 0.00 0.00 98 1017.5
20260506184048 0 108 0.0 2.6 0.00 0.00 0.00 98 1017.4
20260506183551 0 218 0.0 2.6 0.00 0.00 0.00 97 1017.5
20260506183045 0 69 0.0 2.6 0.00 0.00 0.00 97 1017.5
20260506182543 0 94 0.0 2.6 0.00 0.00 0.00 96 1017.6
20260506182042 0 103 0.0 2.6 0.00 0.00 0.00 95 1017.6
20260506181542 0 97 0.0 5.2 0.00 0.00 0.00 94 1017.6
20260506181039 0 94 0.9 5.2 0.00 0.00 0.00 93 1017.6
20260506180538 0 289 0.0 2.6 0.00 0.00 0.00 93 1017.6
20260506180040 0 82 0.0 5.2 0.00 0.00 0.00 92 1017.6
20260506175535 0 91 0.9 7.0 0.00 0.00 0.00 90 1017.7
20260506175035 0 91 0.9 7.0 0.00 0.00 0.00 87 1017.7
20260506174536 0 119 1.7 7.0 0.00 0.00 0.00 86 1017.7
20260506174030 0 118 0.9 7.0 0.00 0.00 0.00 84 1017.8
20260506173530 0 175 0.9 5.2 0.00 0.00 0.00 83 1017.9
20260506173028 0 34 0.9 5.2 0.00 0.00 0.00 81 1017.9
20260506172525 0 79 1.7 5.2 0.00 0.00 0.00 80 1017.9
20260506172028 0 106 0.0 5.2 0.00 0.00 0.00 79 1017.8
20260506171537 0 56 0.0 4.3 0.00 0.00 0.00 79 1017.9
20260506171022 0 103 1.7 4.3 0.00 0.00 0.00 78 1017.8
20260506170524 0 108 0.0 5.2 0.00 0.00 0.00 79 1017.8
20260506170019 0 97 1.7 5.2 0.00 0.00 0.00 81 1017.8
20260506165517 0 91 0.0 5.2 0.00 0.00 0.00 80 1017.8
20260506165016 0 84 1.7 6.1 0.00 0.00 0.00 80 1017.7
20260506164514 0 85 0.9 6.1 0.00 0.00 0.00 80 1017.8
20260506164012 0 89 0.0 5.2 0.00 0.00 0.00 79 1017.8
20260506163511 0 78 1.7 5.2 0.00 0.00 0.00 78 1017.8
20260506163009 0 130 1.7 5.2 0.00 0.00 0.00 79 1017.9
20260506162508 0 103 0.0 3.5 0.00 0.00 0.00 80 1017.9
20260506162007 0 81 0.0 3.5 0.00 0.00 0.00 81 1017.8
20260506161507 0 95 0.0 3.5 0.00 0.00 0.00 82 1017.9
20260506161005 0 77 1.7 3.5 0.00 0.00 0.00 81 1017.8
20260506160505 0 71 1.7 3.5 0.00 0.00 0.00 82 1017.8
20260506160001 0 81 0.0 3.5 0.00 0.00 0.00 83 1017.9
20260506155605 0 92 0.0 2.6 0.00 0.00 0.00 84 1017.8
20260506155058 0 88 0.0 2.6 0.00 0.00 0.00 86 1017.9
20260506154557 0 84 0.0 4.3 0.00 0.00 0.00 85 1017.9
20260506154058 0 77 0.9 4.3 0.00 0.00 0.00 86 1018.0
20260506153556 0 83 0.9 3.5 0.00 0.00 0.00 85 1018.0
20260506153052 0 72 0.0 3.5 0.00 0.00 0.00 85 1018.0
20260506152551 0 77 1.7 3.5 0.00 0.00 0.00 85 1018.1
20260506152049 0 97 0.0 2.6 0.00 0.00 0.00 85 1018.1
20260506151548 0 85 0.0 3.5 0.00 0.00 0.00 86 1018.2
20260506151046 0 75 0.9 3.5 0.00 0.00 0.00 87 1018.0
20260506150545 0 86 0.0 2.6 0.00 0.00 0.00 88 1017.9
20260506150049 0 82 0.9 2.6 0.00 0.00 0.00 90 1017.9
20260506145542 0 90 0.0 2.6 0.00 0.00 0.00 91 1017.9
20260506145043 0 84 0.0 0.9 0.00 0.00 0.00 92 1017.9
20260506144553 0 91 0.0 2.6 0.00 0.00 0.00 93 1017.9
20260506144037 0 87 0.0 1.7 0.00 0.00 0.00 93 1017.9
20260506143537 0 85 0.0 1.7 0.00 0.00 0.00 95 1017.8
20260506143036 0 82 0.0 1.7 0.00 0.00 0.00 96 1017.8
20260506142534 0 76 0.0 0.9 0.00 0.00 0.00 98 1017.7
20260506142031 0 83 0.0 3.5 0.00 0.00 0.00 100 1017.8
20260506141530 0 83 0.0 3.5 0.00 0.00 0.00 100 1017.7
20260506141029 0 22 0.0 0.0 0.00 0.00 0.00 100 1017.6
20260506140527 0 307 0.0 0.0 0.00 0.00 0.00 100 1017.5
20260506140032 0 307 0.0 0.0 0.00 0.00 0.00 100 1017.5
20260506135528 0 308 0.0 0.0 0.00 0.00 0.00 100 1017.4
20260506135023 0 308 0.0 0.0 0.00 0.00 0.00 100 1017.4
20260506134521 0 308 0.0 0.0 0.00 0.00 0.00 100 1017.4
20260506134023 0 307 0.0 0.0 0.00 0.00 0.00 100 1017.3
20260506133520 0 307 0.0 0.0 0.00 0.00 0.00 100 1017.2
20260506133025 0 308 0.0 0.0 0.00 0.00 0.00 100 1017.3
20260506132516 0 0.0 0.0 0.00 0.00 0.00 1017.2
20260506132014 0 0.0 0.0 0.00 0.00 0.00 1017.2
20260506131516 0 0.0 0.0 0.00 0.00 0.00 1017.3
20260506131014 0 0.0 0.0 0.00 0.00 0.00 1017.3
20260506130512 0 0.0 0.0 0.00 0.00 0.00 1017.2
20260506130009 0 0.0 0.0 0.00 0.00 0.00 1017.3
20260506125506 0 0.0 0.0 0.00 0.00 0.00 1017.3
20260506125009 0 0.0 0.0 0.00 0.00 0.00 1017.3
20260506124506 0 0.0 0.0 0.00 0.00 0.00 1017.2
20260506124002 0 0.0 0.0 0.00 0.00 0.00 1017.2
20260506123601 0 0.0 0.0 0.00 0.00 0.00 1017.1
20260506123100 0 0.0 0.0 0.00 0.00 0.00 1017.1
20260506122557 0 0.0 0.0 0.00 0.00 0.00 1017.1
20260506122058 0 0.0 0.0 0.00 0.00 0.00 1017.1
20260506121559 0 0.0 0.0 0.00 0.00 0.00 1017.0
20260506121054 0 0.0 0.0 0.00 0.00 0.00 1016.9
20260506120552 0 0.0 0.0 0.00 0.00 0.00 1016.9
20260506120054 0 0.0 0.0 0.00 0.00 0.00 1016.9
20260506115550 0 0.0 0.0 0.00 0.00 0.00 1016.8
20260506115048 0 0.0 0.0 0.00 0.00 0.00 1016.7
20260506114553 0 0.0 0.0 0.00 0.00 0.00 1016.8
20260506114045 0 0.0 0.0 0.00 0.00 0.00 1016.7
20260506113543 0 0.0 0.0 0.00 0.00 0.00 1016.7
20260506113042 0 0.0 0.0 0.00 0.00 0.00 1016.8
20260506112540 0 0.0 0.0 0.00 0.00 0.00 1016.8
20260506112039 0 0.0 0.0 0.00 0.00 0.00 1016.8
20260506111539 0 0.0 0.0 0.00 0.00 0.00 1016.7
20260506111036 0 0.0 0.0 0.00 0.00 0.00 1016.6
20260506110535 0 0.0 0.0 0.00 0.00 0.00 1016.5
20260506110036 0 0.0 0.0 0.00 0.00 0.00 1016.5
20260506105535 0 0.0 0.0 0.00 0.00 0.00 1016.5
20260506105037 0 0.0 0.0 0.00 0.00 0.00 1016.5
20260506104537 0 0.0 0.0 0.00 0.00 0.00 1016.4
20260506104033 0 0.0 0.0 0.00 0.00 0.00 1016.4
20260506103533 0 0.0 0.0 0.00 0.00 0.00 1016.4
20260506103034 0 0.0 0.0 0.00 0.00 0.00 1016.3
20260506102536 0 0.0 0.0 0.00 0.00 0.00 1016.4
20260506102034 0 0.0 0.0 0.00 0.00 0.00 1016.3
20260506101534 0 0.0 0.0 0.00 0.00 0.00 1016.3
20260506101034 0 0.0 0.0 0.00 0.00 0.00 1016.1
20260506100533 0 0.0 0.0 0.00 0.00 0.00 1016.1
20260506100031 0 0.0 0.0 0.00 0.00 0.00 1016.1
20260506095529 0 0.0 0.0 0.00 0.00 0.00 1016.1
20260506095028 0 0.0 0.0 0.00 0.00 0.00 1016.1
20260506094527 0 0.0 0.0 0.00 0.00 0.00 1016.1
20260506094024 0 0.0 0.0 0.00 0.00 0.00 1016.1
20260506093525 0 0.0 0.0 0.00 0.00 0.00 1016.1
20260506093022 0 0.0 0.0 0.00 0.00 0.00 1016.1
20260506092524 0 0.0 0.0 0.00 0.00 0.00 1016.1
20260506092019 0 0.0 0.0 0.00 0.00 0.00 1016.0
20260506091521 0 0.0 0.0 0.00 0.00 0.00 1016.1
20260506091016 0 0.0 0.0 0.00 0.00 0.00 1016.1
20260506090514 0 0.0 0.0 0.00 0.00 0.00 1016.2
20260506090013 0 0.0 0.0 0.00 0.00 0.00 1016.3
20260506085512 0 0.0 0.0 0.00 0.00 0.00 1016.4
20260506085010 0 0.0 0.0 0.00 0.00 0.00 1016.5
20260506084509 0 0.0 0.0 0.00 0.00 0.00 1016.5
20260506084007 0 0.0 0.0 0.00 0.00 0.00 1016.6
20260506083506 0 0.0 0.0 0.00 0.00 0.00 1016.6
20260506083005 0 0.0 0.0 0.00 0.00 0.00 1016.8
20260506082502 0 0.0 0.0 0.00 0.00 0.00 1016.9
20260506082002 0 0.0 0.0 0.00 0.00 0.00 1016.9
20260506081600 0 0.0 0.0 0.00 0.00 0.00 1016.8
20260506081058 0 0.0 0.0 0.00 0.00 0.00 1016.8
20260506080557 0 306 0.0 0.0 0.00 0.00 0.00 1016.9
20260506073047 0 305 0.0 0.0 0.00 0.00 0.00 100 1017.4
20260506072545 0 305 0.0 0.0 0.00 0.00 0.00 100 1017.5
20260506072044 0 305 0.0 0.0 0.00 0.00 0.00 100 1017.5
20260506071547 0 305 0.0 0.0 0.00 0.00 0.00 100 1017.4
20260506071041 0 305 0.0 0.0 0.00 0.00 0.00 100 1017.5
20260506070541 0 305 0.0 0.0 0.00 0.00 0.00 100 1017.6
20260506062026 0 305 0.0 0.0 0.00 0.00 0.00 100 1017.6
20260506061525 0 305 0.0 0.0 0.00 0.00 0.00 100 1017.6
20260506061024 0 305 0.0 0.0 0.00 0.00 0.00 100 1017.7
20260506060522 0 305 0.0 0.0 0.00 0.00 0.00 100 1017.7
20260506051008 0 305 0.0 0.0 0.00 0.00 0.00 100 1018.3
20260506050504 0 305 0.0 0.0 0.00 0.00 0.00 100 1018.3
20260506045002 0 305 0.0 0.0 0.00 0.00 0.00 100 1018.3
20260506044500 0 305 0.0 0.0 0.00 0.00 0.00 100 1018.4
20260506044000 0 305 0.0 0.0 0.00 0.00 0.00 100 1018.4
20260506043600 0 305 0.0 0.0 0.00 0.00 0.00 100 1018.4
20260506043100 0 305 0.0 0.0 0.00 0.00 0.00 100 1018.4
20260506042557 0 305 0.0 0.0 0.00 0.00 0.00 100 1018.3
20260506042058 0 305 0.0 0.0 0.00 0.00 0.00 100 1018.3
20260506041559 0 305 0.0 0.0 0.00 0.00 0.00 100 1018.3
20260506041054 0 305 0.0 0.0 0.00 0.00 0.00 100 1018.2
20260506040550 0 305 0.0 0.0 0.00 0.00 0.00 100 1018.3
20260506040055 0 305 0.0 0.0 0.00 0.00 0.00 100 1018.2
20260506035550 0 305 0.0 0.0 0.00 0.00 0.00 100 1018.1
20260506035049 0 305 0.0 0.0 0.00 0.00 0.00 100 1018.2
20260506034545 0 305 0.0 0.0 0.00 0.00 0.00 100 1018.1
20260506034043 0 305 0.0 0.0 0.00 0.00 0.00 100 1018.1
20260506033541 0 305 0.0 0.0 0.00 0.00 0.00 100 1018.1
20260506033040 0 305 0.0 0.0 0.00 0.00 0.00 100 1018.0
20260506032539 0 305 0.0 0.0 0.00 0.00 0.00 100 1017.9
20260506032040 0 305 0.0 0.0 0.00 0.00 0.00 100 1017.9
20260506031538 0 305 0.0 0.0 0.00 0.00 0.00 100 1017.8
20260506031035 0 305 0.0 0.0 0.00 0.00 0.00 100 1017.7
20260506030533 0 305 0.0 0.0 0.00 0.00 0.00 100 1017.6